User: anonymous   Login
Location: Joplin
(37.0842°N, 94.5131°W)
Time: 04:31:25
(UTC-05:00)
Language:

ISS - Orbit

View from above orbital plane
View from above orbital plane
View from above satellite
View from above satellite

Ground track
Ground track

The orbit data is extracted from the following two-line orbital elements,

1 25544U 98067A   21295.21163949  .00004404  00000-0  88757-4 0  9995
2 25544  51.6428  74.6349 0004186 132.4567 288.5241 15.48764433308284
Epoch (UTC): 22 October 2021 05:04:45
Eccentricity: 0.0004186
inclination: 51.6428°
perigee height: 417 km
apogee height: 423 km
right ascension of ascending node: 74.6349°
argument of perigee: 132.4567°
revolutions per day: 15.48764433
mean anomaly at epoch: 288.5241°
orbit number at epoch: 30828

The dashed part of the orbit path shows where the satellite is in the earth's shadow,  

DLR